Regional Weather Roundup
Issued by NWS

Home | Current Version | Previous Version | Graphics & Text | Print | Product List | Glossary On
Versions: 1 2 3 4 5 6 7 8 9 10 11 12 13 14 15 16 17 18 19 20 21 22 23 24 25 26 27 28 29 30 31 32 33 34 35 36 37 38 39 40 41 42 43 44 45 46 47 48 49 50
000
ASUS43 KMKX 022200
RWRWI

WISCONSIN REGIONAL WEATHER ROUNDUP
NATIONAL WEATHER SERVICE MILWAUKEE/SULLIVAN WI
500 PM CDT THU JUL 02 2015

NOTE: "FAIR" INDICATES FEW OR NO CLOUDS BELOW 12,000 FEET WITH NO
SIGNIFICANT WEATHER AND/OR OBSTRUCTIONS TO VISIBILITY.

WIZ001-002-006>008-014>016-023>028-022300-
NORTHWEST WISCONSIN

CITY           SKY/WX    TMP DP  RH WIND       PRES   REMARKS
SUPERIOR ARPT  MOSUNNY   77  59  53 W10       29.96S
ASHLAND        SUNNY     76  57  51 W9        29.97F
HAYWARD        SUNNY     75  52  44 S7        30.00F
SIREN          SUNNY     77  46  33 S7        30.00F
CUMBERLAND     SUNNY     72  50  46 S6        30.01F
RICE LAKE      SUNNY     75  49  40 S6        30.03S
CHETEK         SUNNY     75  53  47 S5        30.02S
LADYSMITH      SUNNY     75  54  47 SW7       30.03S
EAU CLAIRE     NOT AVBL
MENOMONIE      SUNNY     76  54  46 E3        30.01S
NEW RICHMOND   MOSUNNY   74  53  47 S6        30.01S
OSCEOLA        SUNNY     76  51  41 SE7       30.02F
$$

WIZ003>005-009-010-017-018-022300-
NORTH CENTRAL WISCONSIN

CITY           SKY/WX    TMP DP  RH WIND       PRES   REMARKS
MANITOWISH WTR PTSUNNY   73  53  49 W5        30.01S
ARBOR VITAE    PTSUNNY   74  54  48 S5        30.01F
WOODRUFF       PTSUNNY   74  54  48 S5        30.01F
RHINELANDER    SUNNY     76  49  38 W6        30.02F
EAGLE RIVER    MOSUNNY   75  48  38 W6        30.01S
LAND O LAKES   SUNNY     76  49  38 CALM      30.02F
PHILLIPS       MOSUNNY   74  53  47 SW6       30.01S
TOMAHAWK       SUNNY     73  51  45 CALM      30.02F
MEDFORD        SUNNY     72  52  49 SE5       30.02F
MERRILL        SUNNY     74  50  42 S3        30.02S
$$

WIZ029-030-035-036-043>047-022300-
CENTRAL WISCONSIN

CITY           SKY/WX    TMP DP  RH WIND       PRES   REMARKS
WAUSAU         SUNNY     75  47  36 SE9       30.00F
MOSINEE        NOT AVBL
MARSHFIELD     SUNNY     74  49  41 E5        30.02F
STEVENS POINT  SUNNY     71  48  43 E6        30.02F
WAUPACA        SUNNY     77  46  33 CALM      30.02S
WAUTOMA        NOT AVBL
WISC RAPIDS    SUNNY     74  46  36 SE9       30.02F
CAMP DOUGLAS   NOT AVBL
$$

WIZ011>013-019>022-031-037>040-048>050-022300-
NORTHEAST WISCONSIN

CITY           SKY/WX    TMP DP  RH WIND       PRES   REMARKS
ANTIGO         SUNNY     71  51  48 CALM      30.03S
SHAWANO        SUNNY     76  47  35 SE6       30.02F
OCONTO         SUNNY     71  48  44 SE6       30.02F
STURGEON BAY   SUNNY     68  45  42 E5        30.05F
GREEN BAY      SUNNY     73  45  36 SE8       30.02F
MANITOWOC      NOT AVBL
APPLETON       SUNNY     72  43  35 E7        30.03S
CLINTONVILLE   SUNNY     73  46  38 S7        30.02S
OSHKOSH        SUNNY     73  46  38 VRB6      30.02S
$$

WIZ032>034-041-042-053>061-022300-
SOUTHWEST WISCONSIN

CITY           SKY/WX    TMP DP  RH WIND       PRES   REMARKS
LA CROSSE      SUNNY     77  53  43 E7        29.99F
SPARTA         SUNNY     76  48  37 NE5       30.01F
VIROQUA        SUNNY     73  51  46 CALM      30.02S
BOSCOBEL       SUNNY     74  51  44 VRB3      30.00S
PRAIRIE DU CHI MOSUNNY   72  48  42 E3        30.00F
PLATTEVILLE    MOSUNNY   71  46  41 NE5       30.01R
$$

WIZ056-057-062-063-064-067-068-022300-
SOUTH CENTRAL WISCONSIN

CITY           SKY/WX    TMP DP  RH WIND       PRES   REMARKS
REEDSBURG      SUNNY     71  50  47 NE9       30.01S
BARABOO/DELLS  SUNNY     72  48  42 E5        30.02S
LONE ROCK      NOT AVBL
MINERAL POINT  SUNNY     72  45  37 NE6       30.01S
MADISON        SUNNY     71  48  43 E9        30.00F
MIDDLETON      SUNNY     73  44  36 CALM      30.02S
WATERTOWN      SUNNY     71  47  42 E7        30.01R
MONROE         SUNNY     70  50  49 NE10      30.00S
JANESVILLE     SUNNY     73  45  35 E12       29.99S
$$

WIZ051-052-058>065-066-070>072-022300-
SOUTHEAST WISCONSIN

CITY           SKY/WX    TMP DP  RH WIND       PRES   REMARKS
MILWAUKEE      MOSUNNY   63  48  58 NE9       30.02F
WAUKESHA       SUNNY     66  48  52 E7        30.03S
MILWAUKEE/TIMM SUNNY     66  45  45 NE5       30.03S
RACINE         SUNNY     63  48  58 N8        30.03F
BURLINGTON     SUNNY     67  50  54 E7        30.01R
KENOSHA        SUNNY     67  53  61 N8        30.01S
FOND DU LAC    SUNNY     73  44  35 NE6       30.02S
SHEBOYGAN      SUNNY     66  46  48 E9        30.03F
WEST BEND      SUNNY     68  45  42 E9        30.02F
JUNEAU         SUNNY     71  47  42 E6        30.03R
$$

LSZ147-162-022300-
LAKE SUPERIOR

STATION/POSITION TIME  TEMP    WIND        PRES    WAVE
                       AIR SEA DIR/SP/G            HT/PER
                 (UTC) (F)     (DEG/KT/KT) (MB)    (FT/S)
W MID LAKE BUOY  2050   51 39  200/ 10/ 10 1014.7F   1
DEVILS ISLAND    2100   69     230/ 10/ 14 1014.2F
SAXON HARBOR     2100   78     210/  3/  7 1014.6
$$

LMZ867-665-643>646-022300-
LAKE MICHIGAN

STATION/POSITION TIME  TEMP    WIND        PRES    WAVE
                       AIR SEA DIR/SP/G            HT/PER
                 (UTC) (F)     (DEG/KT/KT) (MB)    (FT/S)
CHAMBERS ISLAND  2100   72     340/  2/  3 1016.9F
N MID LAKE BUOY  2050   58 55   CALM  /  2 1017.5F   0
NORTHPORT PIER   2100   60     140/  7/  9 1016.9F
SISTER BAY       2114   69     180/ 10/ 12   N/A
ALGOMA LAKESHORE 2110           80/  7/  8   N/A
KEWAUNEE LAKESHO 2100   62      40/  2/  7 1016.8F
SHEBOYGAN LAKESH 2100   57      20/  7/  7 1017.6F
PORT WASHINGTON  2100   61      40/  7/ 10 1017.6F
ATWATER BUOY     2100   57      20/ 10/ 12 1018.0F
MILWAUKEE LAKESH 2100   58      30/ 10/ 11   N/A
KENOSHA   LAKESH 2100   57      30/ 15/ 16 1016.3S
$$

TC  - TEMPERATURE IN CELSIUS
VSB - VISIBILITY IN STATUTE MILES
WCI - WIND CHILL INDEX
HX  - HEAT INDEX



USA.gov is the U.S. government's official web portal to all federal, state and local government web resources and services.